AAL2906 KBNA-KCLT

Flight info

Callsign AAL2906
Flight time 0h 49m
Altitude 31000
Route TAZMO4 BURME COMDY FILPZ4
Aircraft B738/M-SDE2E3FGHIRWXY/LB1

Departure

Time 2026-05-07 01:36
Airport Nashville International Airport (KBNA)

Arrival

Time 2026-05-07 02:26
Airport Charlotte Douglas International Airport (KCLT)
Time Latitude Longitude Altitude Speed Heading
2026-05-07 01:08 36.12818 -86.67041 522 ft 0 kts 40°
2026-05-07 01:23 36.12806 -86.67053 572 ft 4 kts 36°
2026-05-07 01:23 36.12783 -86.67071 572 ft 4 kts 22°
2026-05-07 01:24 36.12758 -86.67078 568 ft 4 kts 346°
2026-05-07 01:24 36.12745 -86.67070 574 ft 0 kts 310°
2026-05-07 01:27 36.12747 -86.67072 574 ft 1 kts 310°
2026-05-07 01:27 36.12753 -86.67082 570 ft 2 kts 310°
2026-05-07 01:27 36.12762 -86.67095 571 ft 2 kts 309°
2026-05-07 01:28 36.12770 -86.67108 568 ft 2 kts 309°
2026-05-07 01:28 36.12772 -86.67110 568 ft 0 kts 309°
2026-05-07 01:29 36.12781 -86.67125 568 ft 8 kts 309°
2026-05-07 01:29 36.12831 -86.67193 570 ft 8 kts 314°
2026-05-07 01:29 36.12854 -86.67260 572 ft 12 kts 249°
2026-05-07 01:30 36.12773 -86.67367 573 ft 19 kts 224°
2026-05-07 01:30 36.12663 -86.67359 576 ft 17 kts 136°
2026-05-07 01:30 36.12586 -86.67260 576 ft 16 kts 133°
2026-05-07 01:30 36.12487 -86.67130 574 ft 24 kts 134°
2026-05-07 01:31 36.12379 -86.66990 576 ft 19 kts 133°
2026-05-07 01:31 36.12312 -86.66897 571 ft 22 kts 126°
2026-05-07 01:31 36.12263 -86.66749 574 ft 15 kts 108°
2026-05-07 01:31 36.12229 -86.66619 573 ft 13 kts 105°
2026-05-07 01:32 36.12174 -86.66555 571 ft 11 kts 182°
2026-05-07 01:32 36.12104 -86.66577 578 ft 10 kts 198°
2026-05-07 01:32 36.11983 -86.66626 577 ft 23 kts 198°
2026-05-07 01:32 36.11832 -86.66687 581 ft 22 kts 198°
2026-05-07 01:33 36.11689 -86.66743 585 ft 21 kts 198°
2026-05-07 01:33 36.11568 -86.66792 587 ft 18 kts 198°
2026-05-07 01:33 36.11451 -86.66838 591 ft 17 kts 197°
2026-05-07 01:33 36.11358 -86.66876 591 ft 12 kts 198°
2026-05-07 01:34 36.11323 -86.66872 590 ft 0 kts 147°
2026-05-07 01:35 36.11321 -86.66871 590 ft 0 kts 147°
2026-05-07 01:35 36.11313 -86.66856 590 ft 7 kts 123°
2026-05-07 01:35 36.11295 -86.66793 589 ft 8 kts 92°
2026-05-07 01:36 36.11355 -86.66737 590 ft 30 kts 20°
2026-05-07 01:36 36.11827 -86.66549 580 ft 111 kts 18°
2026-05-07 01:36 36.12794 -86.66178 639 ft 174 kts 15°
2026-05-07 01:36 36.14011 -86.65677 1313 ft 196 kts 20°
2026-05-07 01:37 36.15330 -86.64884 1924 ft 221 kts 32°
2026-05-07 01:37 36.16497 -86.63429 2256 ft 255 kts 50°
2026-05-07 01:37 36.17625 -86.61796 3244 ft 253 kts 47°
2026-05-07 01:37 36.18842 -86.60167 4019 ft 263 kts 45°
2026-05-07 01:38 36.20138 -86.58491 4730 ft 275 kts 44°
2026-05-07 01:38 36.21464 -86.56733 5442 ft 286 kts 51°
2026-05-07 01:38 36.22256 -86.54420 6088 ft 303 kts 83°
2026-05-07 01:38 36.21998 -86.51823 6743 ft 310 kts 110°
2026-05-07 01:39 36.21318 -86.49275 6971 ft 312 kts 110°
2026-05-07 01:39 36.20643 -86.46708 6988 ft 313 kts 110°
2026-05-07 01:39 36.19986 -86.44131 6999 ft 313 kts 109°
2026-05-07 01:39 36.19293 -86.41586 7064 ft 312 kts 114°
2026-05-07 01:40 36.18734 -86.39946 7435 ft 311 kts 116°
2026-05-07 01:40 36.17553 -86.36704 8619 ft 311 kts 118°
2026-05-07 01:40 36.16657 -86.34257 9473 ft 314 kts 118°
2026-05-07 01:40 36.15757 -86.31779 10241 ft 318 kts 119°
2026-05-07 01:41 36.15133 -86.30056 10501 ft 332 kts 119°
2026-05-07 01:41 36.14166 -86.27376 10670 ft 358 kts 118°
2026-05-07 01:41 36.13139 -86.24496 11045 ft 372 kts 118°
2026-05-07 01:41 36.12083 -86.21516 11554 ft 383 kts 118°
2026-05-07 01:42 36.11011 -86.18478 12255 ft 387 kts 118°
2026-05-07 01:42 36.09925 -86.15406 12893 ft 393 kts 119°
2026-05-07 01:42 36.08818 -86.12292 13573 ft 398 kts 119°
2026-05-07 01:42 36.07694 -86.09139 14156 ft 405 kts 119°
2026-05-07 01:43 36.06858 -86.05744 14608 ft 423 kts 100°
2026-05-07 01:43 36.06622 -86.02094 15222 ft 429 kts 97°
2026-05-07 01:43 36.06423 -85.98386 15735 ft 437 kts 97°
2026-05-07 01:43 36.06205 -85.94611 16251 ft 444 kts 97°
2026-05-07 01:44 36.05960 -85.90787 16782 ft 450 kts 98°
2026-05-07 01:44 36.05692 -85.86902 17287 ft 457 kts 98°
2026-05-07 01:44 36.05411 -85.82958 17781 ft 464 kts 98°
2026-05-07 01:44 36.05124 -85.78960 18285 ft 470 kts 98°
2026-05-07 01:45 36.04837 -85.74907 18765 ft 475 kts 99°
2026-05-07 01:45 36.04552 -85.70841 19353 ft 476 kts 98°
2026-05-07 01:45 36.04267 -85.66751 19944 ft 478 kts 98°
2026-05-07 01:45 36.03979 -85.62643 20463 ft 481 kts 98°
2026-05-07 01:46 36.03694 -85.58557 20978 ft 484 kts 98°
2026-05-07 01:46 36.03399 -85.54402 21510 ft 487 kts 98°
2026-05-07 01:46 36.03099 -85.50227 22022 ft 489 kts 98°
2026-05-07 01:46 36.02796 -85.46026 22507 ft 492 kts 98°
2026-05-07 01:47 36.02491 -85.41812 22974 ft 495 kts 98°
2026-05-07 01:47 36.02183 -85.37565 23517 ft 496 kts 98°
2026-05-07 01:47 36.01873 -85.33310 23932 ft 499 kts 98°
2026-05-07 01:47 36.01559 -85.29020 24283 ft 503 kts 98°
2026-05-07 01:48 36.01240 -85.24700 24614 ft 507 kts 98°
2026-05-07 01:48 36.00918 -85.20336 24954 ft 511 kts 98°
2026-05-07 01:48 36.00592 -85.15959 25299 ft 514 kts 98°
2026-05-07 01:48 36.00265 -85.11553 25671 ft 517 kts 99°
2026-05-07 01:49 35.99932 -85.07118 26031 ft 519 kts 99°
2026-05-07 01:49 35.99605 -85.02665 26359 ft 522 kts 98°
2026-05-07 01:49 35.99316 -84.98193 26806 ft 522 kts 98°
2026-05-07 01:49 35.99053 -84.93712 27248 ft 522 kts 98°
2026-05-07 01:50 35.98797 -84.89235 27704 ft 522 kts 98°
2026-05-07 01:50 35.98541 -84.84765 28135 ft 522 kts 98°
2026-05-07 01:50 35.98279 -84.80296 28566 ft 522 kts 99°
2026-05-07 01:50 35.98011 -84.75825 29014 ft 522 kts 99°
2026-05-07 01:51 35.97737 -84.71345 29471 ft 522 kts 99°
2026-05-07 01:51 35.97464 -84.66938 29912 ft 522 kts 99°
2026-05-07 01:51 35.97182 -84.62429 30398 ft 518 kts 99°
2026-05-07 01:51 35.96908 -84.58062 30866 ft 515 kts 99°
2026-05-07 01:52 35.96630 -84.53656 30994 ft 514 kts 100°
2026-05-07 01:52 35.96070 -84.44888 30999 ft 511 kts 100°
2026-05-07 01:53 35.95502 -84.36123 30991 ft 513 kts 100°
2026-05-07 01:53 35.94925 -84.27312 30983 ft 516 kts 100°
2026-05-07 01:54 35.94344 -84.18484 30984 ft 516 kts 100°
2026-05-07 01:54 35.93758 -84.09678 30979 ft 514 kts 100°
2026-05-07 01:55 35.93167 -84.00895 30979 ft 513 kts 100°
2026-05-07 01:55 35.92573 -83.92186 30981 ft 511 kts 100°
2026-05-07 01:56 35.91971 -83.83464 30980 ft 510 kts 100°
2026-05-07 01:56 35.91365 -83.74763 30981 ft 509 kts 100°
2026-05-07 01:57 35.90751 -83.66046 30973 ft 509 kts 100°
2026-05-07 01:57 35.90133 -83.57354 30974 ft 509 kts 100°
2026-05-07 01:58 35.89508 -83.48639 30978 ft 510 kts 99°
2026-05-07 01:58 35.89053 -83.44355 30943 ft 495 kts 108°
2026-05-07 01:58 35.88219 -83.40299 30800 ft 482 kts 113°
2026-05-07 01:58 35.87261 -83.36367 30507 ft 477 kts 114°
2026-05-07 01:59 35.86289 -83.32465 30168 ft 475 kts 113°
2026-05-07 01:59 35.85352 -83.28568 29779 ft 473 kts 112°
2026-05-07 01:59 35.84458 -83.24671 29379 ft 471 kts 111°
2026-05-07 01:59 35.83593 -83.20791 28984 ft 468 kts 111°
2026-05-07 02:00 35.82737 -83.16938 28600 ft 465 kts 111°
2026-05-07 02:00 35.81896 -83.13157 28246 ft 461 kts 110°
2026-05-07 02:00 35.81053 -83.09362 27900 ft 458 kts 110°
2026-05-07 02:00 35.80214 -83.05583 27523 ft 456 kts 110°
2026-05-07 02:01 35.79384 -83.01834 27174 ft 454 kts 110°
2026-05-07 02:01 35.78548 -82.98079 26778 ft 453 kts 110°
2026-05-07 02:01 35.77715 -82.94350 26414 ft 451 kts 110°
2026-05-07 02:01 35.76883 -82.90633 26030 ft 450 kts 110°
2026-05-07 02:02 35.76051 -82.86917 25654 ft 447 kts 110°
2026-05-07 02:02 35.75225 -82.83235 25304 ft 446 kts 110°
2026-05-07 02:02 35.74398 -82.79558 24920 ft 443 kts 110°
2026-05-07 02:02 35.73578 -82.75914 24578 ft 440 kts 109°
2026-05-07 02:03 35.72765 -82.72291 24256 ft 437 kts 109°
2026-05-07 02:03 35.71950 -82.68676 23872 ft 438 kts 110°
2026-05-07 02:03 35.71129 -82.65064 23426 ft 439 kts 110°
2026-05-07 02:03 35.70313 -82.61492 22964 ft 440 kts 109°
2026-05-07 02:04 35.69485 -82.57871 22530 ft 439 kts 109°
2026-05-07 02:04 35.68658 -82.54253 22090 ft 439 kts 109°
2026-05-07 02:04 35.67821 -82.50594 21665 ft 438 kts 109°
2026-05-07 02:04 35.67002 -82.47015 21180 ft 433 kts 109°
2026-05-07 02:05 35.66201 -82.43513 20760 ft 427 kts 109°
2026-05-07 02:05 35.65396 -82.40019 20352 ft 421 kts 109°
2026-05-07 02:05 35.64608 -82.36584 19948 ft 415 kts 109°
2026-05-07 02:05 35.63827 -82.33195 19548 ft 409 kts 109°
2026-05-07 02:06 35.63056 -82.29852 19162 ft 404 kts 109°
2026-05-07 02:06 35.62294 -82.26557 18839 ft 397 kts 109°
2026-05-07 02:06 35.61544 -82.23316 18455 ft 392 kts 109°
2026-05-07 02:06 35.60798 -82.20102 17994 ft 389 kts 109°
2026-05-07 02:07 35.60061 -82.16923 17584 ft 385 kts 109°
2026-05-07 02:07 35.58619 -82.10725 16795 ft 375 kts 110°
2026-05-07 02:07 35.57896 -82.07625 16387 ft 371 kts 110°
2026-05-07 02:08 35.57226 -82.04635 16002 ft 366 kts 107°
2026-05-07 02:08 35.56652 -82.01555 15599 ft 363 kts 105°
2026-05-07 02:08 35.56134 -81.98599 15306 ft 356 kts 105°
2026-05-07 02:08 35.55617 -81.95638 14976 ft 351 kts 105°
2026-05-07 02:09 35.55104 -81.92736 14668 ft 345 kts 106°
2026-05-07 02:09 35.54592 -81.89881 14366 ft 339 kts 106°
2026-05-07 02:09 35.54083 -81.87074 14060 ft 334 kts 107°
2026-05-07 02:09 35.53580 -81.84314 13756 ft 328 kts 107°
2026-05-07 02:10 35.53085 -81.81607 13422 ft 323 kts 107°
2026-05-07 02:10 35.52596 -81.78939 13097 ft 318 kts 107°
2026-05-07 02:10 35.52111 -81.76304 12813 ft 316 kts 107°
2026-05-07 02:10 35.51627 -81.73664 12518 ft 318 kts 107°
2026-05-07 02:11 35.51133 -81.70966 12249 ft 329 kts 107°
2026-05-07 02:11 35.50633 -81.68222 11934 ft 329 kts 106°
2026-05-07 02:11 35.50136 -81.65485 11611 ft 327 kts 107°
2026-05-07 02:11 35.49641 -81.62774 11311 ft 326 kts 106°
2026-05-07 02:12 35.49154 -81.60059 11015 ft 326 kts 103°
2026-05-07 02:12 35.49120 -81.57300 10714 ft 330 kts 84°
2026-05-07 02:12 35.49453 -81.54524 10439 ft 328 kts 83°
2026-05-07 02:12 35.49761 -81.51758 10169 ft 327 kts 84°
2026-05-07 02:13 35.50044 -81.48992 9889 ft 326 kts 85°
2026-05-07 02:13 35.50313 -81.46272 9821 ft 317 kts 85°
2026-05-07 02:13 35.50578 -81.43547 9351 ft 323 kts 85°
2026-05-07 02:13 35.50843 -81.40813 9038 ft 323 kts 85°
2026-05-07 02:14 35.51108 -81.38077 8759 ft 321 kts 85°
2026-05-07 02:14 35.51371 -81.35356 8489 ft 320 kts 85°
2026-05-07 02:14 35.51633 -81.32651 8237 ft 317 kts 85°
2026-05-07 02:14 35.51887 -81.30025 7973 ft 302 kts 85°
2026-05-07 02:15 35.52128 -81.27533 7713 ft 286 kts 85°
2026-05-07 02:15 35.52355 -81.25174 7479 ft 272 kts 86°
2026-05-07 02:15 35.52568 -81.22953 7228 ft 260 kts 85°
2026-05-07 02:15 35.52774 -81.20799 6995 ft 248 kts 85°
2026-05-07 02:16 35.52793 -81.18741 6746 ft 235 kts 110°
2026-05-07 02:16 35.52037 -81.17092 6591 ft 215 kts 136°
2026-05-07 02:16 35.51084 -81.15661 6374 ft 221 kts 126°
2026-05-07 02:16 35.50720 -81.13812 6143 ft 229 kts 90°
2026-05-07 02:17 35.50880 -81.11879 5968 ft 226 kts 85°
2026-05-07 02:17 35.51126 -81.09981 5836 ft 224 kts 83°
2026-05-07 02:17 35.51407 -81.08081 5742 ft 228 kts 82°
2026-05-07 02:17 35.51686 -81.06175 5647 ft 230 kts 82°
2026-05-07 02:18 35.51970 -81.04245 5558 ft 227 kts 82°
2026-05-07 02:18 35.52218 -81.02344 5486 ft 223 kts 83°
2026-05-07 02:18 35.52335 -81.00452 5427 ft 221 kts 104°
2026-05-07 02:18 35.51747 -80.98808 5248 ft 204 kts 139°
2026-05-07 02:19 35.50785 -80.97553 4906 ft 203 kts 142°
2026-05-07 02:19 35.49814 -80.96280 4571 ft 205 kts 142°
2026-05-07 02:19 35.48854 -80.95017 4314 ft 204 kts 142°
2026-05-07 02:19 35.47799 -80.93896 4032 ft 191 kts 166°
2026-05-07 02:20 35.46552 -80.93635 4019 ft 181 kts 190°
2026-05-07 02:20 35.45371 -80.93935 3971 ft 172 kts 202°
2026-05-07 02:20 35.44225 -80.94314 3953 ft 168 kts 202°
2026-05-07 02:20 35.43105 -80.94677 3953 ft 164 kts 202°
2026-05-07 02:21 35.41979 -80.95039 3971 ft 171 kts 201°
2026-05-07 02:21 35.40772 -80.95180 3957 ft 175 kts 187°
2026-05-07 02:21 35.39558 -80.95098 3928 ft 173 kts 185°
2026-05-07 02:21 35.38358 -80.94994 3794 ft 173 kts 185°
2026-05-07 02:22 35.37160 -80.94889 3576 ft 172 kts 185°
2026-05-07 02:22 35.35974 -80.94787 3376 ft 174 kts 185°
2026-05-07 02:22 35.34760 -80.94682 3145 ft 175 kts 185°
2026-05-07 02:22 35.33550 -80.94576 2922 ft 170 kts 185°
2026-05-07 02:23 35.32422 -80.94476 2690 ft 159 kts 185°
2026-05-07 02:23 35.31360 -80.94383 2512 ft 148 kts 187°
2026-05-07 02:23 35.30356 -80.94300 2333 ft 140 kts 186°
2026-05-07 02:23 35.29408 -80.94287 2096 ft 134 kts 186°
2026-05-07 02:24 35.28468 -80.94095 2003 ft 139 kts 180°
2026-05-07 02:24 35.27506 -80.94037 1803 ft 139 kts 186°
2026-05-07 02:24 35.26525 -80.93971 1605 ft 145 kts 182°
2026-05-07 02:24 35.25850 -80.93913 1455 ft 150 kts 180°
2026-05-07 02:25 35.24445 -80.93778 1201 ft 157 kts 178°
2026-05-07 02:25 35.23708 -80.93731 1095 ft 156 kts 179°
2026-05-07 02:25 35.22673 -80.93615 846 ft 144 kts 178°
2026-05-07 02:25 35.21748 -80.93551 735 ft 122 kts 177°
2026-05-07 02:26 35.21252 -80.93517 733 ft 21 kts 196°
2026-05-07 02:26 35.21216 -80.93567 733 ft 3 kts 262°
2026-05-07 02:26 35.21215 -80.93583 733 ft 0 kts 266°
2026-05-07 02:27 35.21215 -80.93585 733 ft 2 kts 266°
2026-05-07 02:27 35.21222 -80.93638 732 ft 7 kts 300°
2026-05-07 02:27 35.21278 -80.93652 732 ft 14 kts 356°
2026-05-07 02:27 35.21369 -80.93659 732 ft 13 kts 356°
2026-05-07 02:28 35.21464 -80.93667 732 ft 15 kts 356°
2026-05-07 02:28 35.21564 -80.93687 732 ft 14 kts 331°
2026-05-07 02:28 35.21631 -80.93774 732 ft 14 kts 310°
2026-05-07 02:28 35.21692 -80.93861 732 ft 13 kts 313°
2026-05-07 02:29 35.21759 -80.93935 731 ft 13 kts 319°
2026-05-07 02:29 35.21824 -80.94005 731 ft 12 kts 318°
2026-05-07 02:29 35.21868 -80.94063 731 ft 1 kts 296°
2026-05-07 02:29 35.21869 -80.94065 730 ft 2 kts 294°
2026-05-07 02:30 35.21898 -80.94105 731 ft 7 kts 294°
2026-05-07 02:30 35.21905 -80.94155 731 ft 5 kts 262°
2026-05-07 02:30 35.21898 -80.94186 731 ft 3 kts 254°
2026-05-07 02:30 35.21896 -80.94194 731 ft 0 kts 253°